TimeMDT,TemperatureF,Dew PointF,Humidity,Sea Level PressureIn,VisibilityMPH,Wind Direction,Wind SpeedMPH,Gust SpeedMPH,PrecipitationIn,Events,Conditions,WindDirDegrees,DateUTC
12:00 AM,26.8,23.7,88,30.07,-9999.0,ESE,1.2,-,N/A,,Unknown,120,2012-10-31 06:00:00
1:00 AM,27.7,23.7,85,30.07,-9999.0,NNE,1.2,-,N/A,,Unknown,30,2012-10-31 07:00:00
2:00 AM,28.2,23.7,83,30.09,-9999.0,NE,2.3,-,N/A,,Unknown,50,2012-10-31 08:00:00
3:00 AM,27.5,23.0,83,30.09,-9999.0,ESE,1.2,-,N/A,,Unknown,120,2012-10-31 09:00:00
4:00 AM,27.1,23.2,85,30.10,-9999.0,East,2.3,-,N/A,,Unknown,80,2012-10-31 10:00:00
5:00 AM,26.8,22.6,84,30.11,-9999.0,ENE,2.3,-,N/A,,Unknown,60,2012-10-31 11:00:00
6:00 AM,25.9,21.9,85,30.12,-9999.0,NE,2.3,-,N/A,,Unknown,50,2012-10-31 12:00:00
7:00 AM,24.8,21.4,87,30.12,-9999.0,East,3.5,-,N/A,,Unknown,80,2012-10-31 13:00:00
8:00 AM,24.6,21.4,87,30.10,-9999.0,East,2.3,-,N/A,,Unknown,80,2012-10-31 14:00:00
9:00 AM,24.4,21.2,87,30.11,-9999.0,East,2.3,-,N/A,,Unknown,100,2012-10-31 15:00:00
10:00 AM,24.6,21.6,88,30.10,-9999.0,ENE,3.5,-,N/A,,Unknown,60,2012-10-31 16:00:00
11:00 AM,25.2,21.6,86,30.09,-9999.0,NE,3.5,-,N/A,,Unknown,40,2012-10-31 17:00:00
12:00 PM,26.2,21.7,83,30.07,-9999.0,ESE,3.5,-,N/A,,Unknown,110,2012-10-31 18:00:00
1:00 PM,27.5,23.0,83,30.05,-9999.0,ENE,2.3,-,N/A,,Unknown,70,2012-10-31 19:00:00
2:00 PM,29.8,23.5,77,30.02,-9999.0,Calm,Calm,-,N/A,,Unknown,0,2012-10-31 20:00:00
3:00 PM,30.7,24.8,79,29.99,-9999.0,SSE,1.2,-,N/A,,Unknown,160,2012-10-31 21:00:00
4:00 PM,31.3,24.8,77,29.97,-9999.0,East,1.2,-,N/A,,Unknown,90,2012-10-31 22:00:00
5:00 PM,31.5,26.2,81,29.97,-9999.0,NE,1.2,-,N/A,,Unknown,40,2012-10-31 23:00:00
6:00 PM,30.2,25.3,82,29.96,-9999.0,ESE,1.2,-,N/A,,Unknown,110,2012-11-01 00:00:00
7:00 PM,29.1,24.8,84,29.96,-9999.0,ESE,1.2,-,N/A,,Unknown,120,2012-11-01 01:00:00
8:00 PM,28.2,24.1,84,29.95,-9999.0,East,2.3,-,N/A,,Unknown,100,2012-11-01 02:00:00
9:00 PM,27.7,23.7,85,29.93,-9999.0,ENE,2.3,-,N/A,,Unknown,70,2012-11-01 03:00:00
10:00 PM,27.3,23.7,86,29.93,-9999.0,East,3.5,-,N/A,,Unknown,80,2012-11-01 04:00:00
11:00 PM,27.0,23.4,86,29.92,-9999.0,ENE,1.2,-,N/A,,Unknown,70,2012-11-01 05:00:00